Temperature
18 18 18 18 18 18 18 18 18 18 18 18 18 18 18 18 18 18 18 18 18 18 18 18 18 18 18 18 18 18 18 18 18 18 18 18 18 18 18 18 18 18 18
18 18 18 18 18 18 18 18 18 18 18 18 18 18 18 18 18 18 18 18 18 18 18 18 18 18 18 18 18 18 18 18 18 18 18 18 18 18 18 18 18 18 18
18 18 18 18 18 18 17 17 17 17 18 18 18 18 18 18 18 18 18 18 18 17 17 17 17 17 17 18 18 18 18 18 18 17 17 17 18 18 18 18 18 18 18
18 18 18 18 18 17 17 17 17 17 17 17 18 18 17 17 17 17 17 17 17 17 17 17 17 17 17 17 17 17 17 17 17 17 17 17 17 18 18 17 17 17 17
18 18 18 18 17 17 17 17 17 17 17 17 17 17 17 17 17 17 17 17 17 17 17 17 17 17 17 17 17 17 17 17 17 17 17 17 17 17 17 17 17 17 17
18 18 18 17 17 17 17 17 17 17 17 17 17 17 17 17 17 17 17 17 17 17 17 17 17 17 17 17 17 17 17 17 17 17 17 17 17 17 17 17 17 17 17
18 18 17 17 17 17 17 17 17 17 17 17 17 17 17 17 17 17 17 17 17 17 17 17 17 17 17 17 17 17 17 17 17 17 17 17 17 17 17 17 17 17 17
18 17 17 17 17 17 17 17 17 17 17 17 17 17 17 17 17 17 17 17 17 17 17 17 17 17 17 17 17 17 17 17 16 16 16 17 17 17 17 17 17 17 17
18 17 17 17 17 17 17 17 17 17 16 16 16 16 16 17 17 17 17 17 17 17 16 16 16 17 17 17 17 17 16 16 16 16 16 16 17 17 17 17 17 17 17
18 18 17 17 17 17 17 17 17 17 16 16 16 16 16 16 16 16 16 16 16 16 16 16 16 16 16 16 16 16 16 16 16 16 16 16 16 17 17 17 17 17 17
18 18 18 17 17 17 17 17 17 16 16 16 16 16 16 16 16 16 16 16 16 16 16 16 16 16 16 16 16 16 16 16 16 16 16 16 16 16 16 16 16 16 16
19 18 18 18 17 17 17 17 17 16 16 16 16 16 16 16 16 16 16 16 16 16 16 16 16 16 16 16 16 16 16 16 16 16 16 16 16 16 16 16 16 16 16
19 18 18 18 17 17 17 17 17 17 17 16 16 16 16 16 16 16 16 16 16 16 16 16 16 16 16 16 16 16 16 16 16 16 16 16 16 16 16 16 16 16 16
19 19 18 18 18 17 17 17 17 17 17 16 16 16 16 16 16 16 16 16 16 16 16 16 16 16 16 16 16 16 16 15 15 15 15 15 15 16 16 16 16 16 15
19 19 18 18 18 18 17 17 17 17 17 16 16 16 16 16 16 16 16 16 16 16 16 16 16 16 16 16 16 16 15 15 15 15 15 15 15 15 15 15 15 15 15
19 19 18 18 18 18 17 17 17 17 17 17 16 16 16 16 16 16 16 16 16 16 16 16 16 16 16 16 15 15 15 15 15 15 15 15 15 15 15 15 15 15 15
19 19 18 18 18 18 17 17 17 17 17 17 16 16 17 16 16 16 16 16 16 16 16 16 16 16 15 15 15 15 15 15 15 15 14 14 14 14 15 15 15 15 15
20 19 18 18 18 18 17 17 17 17 17 17 16 16 16 16 16 16 16 16 16 16 16 16 16 15 15 15 15 15 15 15 15 15 14 14 14 14 14 14 14 14 14
20 19 19 18 18 18 17 17 17 17 17 16 16 16 16 16 16 16 16 16 16 16 15 15 15 15 15 15 15 15 15 15 15 15 14 14 14 14 14 14 14 14 14
20 19 19 18 18 18 17 17 17 17 16 16 16 16 16 16 16 16 16 16 16 15 15 15 15 15 15 15 15 15 15 15 15 14 14 14 14 14 14 14 14 14 14
20 19 19 18 18 18 17 17 17 16 16 16 16 16 16 16 16 16 16 16 15 15 15 15 15 15 15 15 15 15 15 15 15 14 14 14 14 14 14 13 13 13 14
20 19 19 19 18 18 17 17 17 16 16 16 16 16 16 16 16 16 16 15 15 15 15 15 15 15 15 15 15 15 15 15 14 14 14 14 14 14 14 13 13 13 13
20 19 19 18 18 18 17 17 17 16 16 16 16 16 16 16 16 16 16 15 15 15 15 15 15 15 15 15 15 15 15 15 14 14 14 14 14 14 13 13 13 13 13
19 19 19 18 18 18 17 17 17 16 16 16 16 16 16 16 16 16 16 15 15 15 15 15 15 15 15 15 15 15 16 15 15 14 14 14 14 14 13 13 13 13 13
19 19 19 18 18 17 17 17 16 16 16 16 16 16 16 15 15 15 15 15 15 15 15 15 15 15 15 15 15 15 15 16 16 15 14 14 14 13 13 13 13 13 13
19 19 18 18 18 17 17 17 16 16 16 16 16 16 16 15 15 15 15 15 15 15 15 15 15 15 15 15 15 15 15 15 15 15 15 14 14 13 13 13 13 13 13
Wind_Speed
8 11 10 9 9 9 9 9 9 9 10 10 11 11 11 11 10 10 9 9 9 9 9 8 8 8 8 8 8 8 8 7 7 8 9 9 9 9 8 8 7 7 7
10 13 12 10 10 9 9 9 9 9 9 10 11 11 11 11 10 10 9 9 9 8 8 8 8 8 8 8 8 8 7 6 5 5 7 8 9 9 9 9 9 7 7
11 13 12 11 11 10 10 10 10 10 11 10 11 10 10 10 9 9 9 8 8 8 8 8 8 8 8 8 8 7 6 4 3 2 4 6 9 10 9 9 9 9 8
11 12 12 11 11 10 10 10 10 11 11 11 10 10 10 10 9 9 8 8 8 9 9 9 8 8 7 7 7 6 4 4 4 3 4 8 9 10 10 9 9 8 8
12 13 13 12 11 10 10 10 10 10 10 10 10 10 10 10 9 9 8 8 8 8 8 8 8 7 7 7 6 5 4 5 5 6 9 11 10 10 10 10 9 8 8
12 13 12 12 11 11 10 10 10 10 10 9 9 9 9 9 9 9 8 8 8 7 7 8 8 8 8 7 6 5 5 6 6 8 10 10 10 10 10 10 9 9 8
10 12 13 12 11 11 10 10 9 9 9 9 9 8 8 8 8 8 8 8 8 8 8 8 8 9 9 8 6 6 7 7 6 9 10 11 10 11 10 10 9 9 9
9 11 12 12 12 11 10 10 9 9 9 9 9 9 9 9 9 9 9 9 9 9 8 9 9 9 9 7 6 6 8 8 9 10 11 11 10 10 10 9 9 9 9
8 9 10 12 11 11 10 10 9 9 8 8 8 8 8 9 9 9 9 9 9 9 9 9 9 10 8 7 5 6 7 9 10 9 10 10 11 11 10 10 9 9 9
6 7 7 10 11 11 11 10 9 9 8 7 7 7 7 8 8 8 9 9 9 9 9 9 9 9 8 5 4 4 6 8 11 12 10 10 12 12 12 11 10 10 10
5 5 7 7 7 9 10 10 9 9 8 8 7 7 7 7 7 8 9 10 9 8 8 8 8 8 6 3 2 3 5 8 12 12 11 11 12 12 12 12 12 12 11
5 5 6 6 6 6 7 9 8 7 8 7 7 7 6 6 8 9 9 8 8 8 7 6 5 5 3 2 2 4 7 11 11 11 12 14 13 13 13 13 13 13 13
5 4 5 6 6 5 4 5 4 4 5 4 5 7 6 7 7 8 6 6 6 6 5 5 3 3 3 4 5 7 9 10 10 11 12 14 14 14 14 14 14 14 14
5 5 5 5 5 5 5 3 4 3 3 4 4 7 6 3 3 4 3 4 5 4 3 3 1 3 6 8 7 8 9 9 11 11 13 14 14 14 15 15 14 14 15
6 5 5 4 5 5 4 1 4 3 3 5 4 5 6 3 3 3 3 4 4 5 3 3 4 6 6 7 8 8 7 9 11 11 12 14 15 15 15 15 15 15 15
6 6 5 4 5 5 4 3 3 4 3 5 4 5 6 5 3 3 3 3 4 5 4 4 5 5 5 5 6 7 8 8 10 10 11 12 15 15 15 15 15 16 16
8 8 6 4 4 5 5 3 4 4 4 3 3 3 6 6 5 4 3 3 3 4 5 5 6 5 5 5 5 6 6 7 8 9 10 10 11 14 15 15 16 16 17
7 8 7 4 4 5 5 3 2 4 4 3 3 3 5 7 8 5 3 3 4 5 5 4 4 4 5 4 4 4 4 5 6 7 8 9 9 10 12 14 15 16 17
6 7 7 5 5 6 5 4 3 4 4 3 4 4 5 6 7 6 3 3 5 4 3 4 4 3 4 4 4 4 4 4 4 7 7 8 8 9 10 12 14 15 17
5 6 7 6 6 6 4 3 3 4 3 3 3 3 4 4 6 5 3 4 5 4 4 4 4 3 2 3 4 5 4 4 4 4 5 7 8 9 9 9 11 13 16
6 5 6 6 6 6 4 3 3 3 2 3 2 4 4 3 5 5 3 3 3 4 4 4 3 3 2 3 3 3 3 4 4 3 4 5 6 8 9 10 10 10 12
7 7 6 6 6 6 4 3 4 3 3 3 2 3 4 3 4 4 4 3 3 4 4 4 3 2 1 1 1 2 2 2 3 3 3 4 4 6 7 10 11 12 11
7 6 6 6 7 7 6 3 3 3 2 2 2 2 2 3 3 3 3 3 3 3 3 3 2 2 1 1 2 2 2 1 1 3 3 5 5 4 4 8 10 11 12
7 6 6 7 7 6 7 5 4 4 2 2 2 3 3 3 2 2 3 3 3 3 3 2 3 2 1 0 1 2 2 3 2 1 2 3 5 5 5 6 8 10 12
7 6 6 6 7 6 7 6 5 3 3 2 2 3 2 2 2 2 3 3 3 3 3 3 3 2 1 1 1 1 2 1 1 3 2 2 3 3 4 5 6 8 11
7 6 5 6 6 6 7 7 6 5 4 4 3 3 3 2 2 2 3 3 3 3 3 3 3 2 2 2 2 1 1 1 1 2 3 3 3 2 4 4 5 7 10
Wind_Direction
91 95 90 87 87 85 82 79 82 82 84 84 82 81 78 77 75 78 78 77 76 75 73 72 72 71 71 72 68 67 68 69 77 81 80 75 71 66 58 51 57 67 67
98 97 92 88 86 88 90 85 82 84 86 87 86 83 81 78 76 77 79 77 77 77 76 74 70 68 68 69 66 66 63 62 74 86 87 81 73 65 59 56 57 63 66
96 100 95 88 88 88 90 89 86 85 88 89 88 89 87 83 79 78 78 77 77 76 75 72 72 69 65 66 64 64 59 49 41 61 86 94 84 68 62 60 62 62 61
93 94 94 93 91 89 89 92 89 89 90 90 89 91 91 87 81 77 78 79 78 76 75 72 71 72 71 71 68 66 52 24 8 24 68 72 72 69 62 60 60 58 57
93 93 98 97 94 93 92 94 94 92 91 93 92 92 91 89 87 80 77 79 80 79 78 74 71 73 73 75 72 61 37 9 9 46 71 72 70 70 64 59 58 55 54
97 98 102 101 99 97 96 98 96 96 93 93 94 93 93 90 88 84 79 81 83 80 79 78 76 77 80 76 66 50 26 5 30 61 73 74 73 69 63 56 54 51 49
100 105 109 109 106 103 100 99 97 99 96 95 96 96 97 94 91 88 83 81 81 80 81 82 81 81 80 74 61 38 14 0 70 69 70 74 72 66 60 55 51 48 46
106 114 117 119 115 112 108 104 103 103 102 101 101 99 99 100 99 93 86 82 80 81 85 85 87 86 81 74 62 39 25 27 61 75 72 69 69 63 57 54 52 49 46
109 121 131 134 127 121 118 116 114 112 112 113 112 109 107 108 105 99 92 87 84 86 91 91 94 93 86 75 57 35 23 34 57 64 70 65 64 60 56 54 52 48 44
117 121 125 130 137 136 132 128 128 128 129 132 135 135 131 127 117 109 100 95 92 93 95 99 103 101 93 81 56 30 24 42 66 63 63 64 62 59 56 53 52 50 45
108 118 119 119 123 134 136 136 145 145 150 155 161 164 160 152 130 115 106 106 102 102 105 112 115 114 110 98 54 35 36 70 73 67 58 61 61 60 57 55 54 52 48
120 115 119 119 123 127 124 140 157 155 164 173 163 161 165 127 112 111 119 118 119 120 122 129 139 137 138 128 69 51 62 72 76 71 62 63 64 63 61 58 55 51 48
113 109 111 116 122 122 122 134 134 134 152 145 127 128 112 107 120 127 137 140 140 143 142 134 153 162 122 81 71 73 70 74 74 70 65 65 65 64 61 58 55 51 47
124 117 112 114 117 114 109 121 127 122 124 111 98 113 108 106 118 127 134 133 133 122 110 120 112 83 81 74 69 74 72 76 84 80 69 67 65 63 61 57 55 52 49
119 116 109 121 115 109 109 143 119 114 104 115 105 109 106 101 109 98 96 95 96 94 87 72 72 68 63 59 59 66 72 76 89 92 79 70 65 62 60 57 55 53 50
140 132 125 127 117 116 123 113 103 97 103 101 97 102 114 113 110 98 82 76 78 86 83 87 84 77 70 65 59 61 63 72 85 97 97 81 71 67 62 58 56 54 51
147 136 130 132 123 120 114 106 104 107 106 103 104 118 121 113 104 101 91 81 75 86 82 76 77 76 80 78 67 63 62 66 77 84 96 100 87 73 67 62 58 54 51
133 130 130 145 131 113 110 97 90 102 100 99 97 84 93 107 106 95 92 97 99 93 84 81 78 72 73 76 70 66 66 61 68 78 83 90 95 87 76 70 62 56 52
131 134 137 140 126 115 115 121 96 92 95 87 85 68 71 80 94 97 89 97 93 81 70 78 75 82 91 90 94 80 71 60 49 61 69 75 81 93 92 80 70 60 53
130 133 130 130 131 124 120 112 100 91 91 84 85 76 70 86 98 104 105 89 88 87 75 77 83 76 90 86 86 87 86 85 61 52 61 68 61 74 84 91 83 66 56
143 144 140 145 141 131 127 124 118 121 113 103 99 92 76 80 106 105 96 88 82 92 97 95 90 89 85 97 89 83 72 74 84 67 63 69 59 60 69 73 76 76 64
159 164 155 148 138 129 131 145 142 131 124 114 102 100 91 66 75 111 120 115 106 96 90 96 91 72 36 83 105 117 104 50 38 72 79 77 68 59 61 72 72 71 71
162 167 162 155 148 143 138 124 113 105 93 104 121 111 85 75 44 81 112 114 110 118 121 121 114 102 39 0 54 91 114 127 106 37 66 81 76 64 59 68 73 74 72
165 168 164 163 151 143 139 127 125 128 131 145 148 145 137 120 103 83 96 110 118 111 126 139 125 113 89 18 22 37 78 127 134 114 34 70 78 69 63 69 66 69 73
161 166 164 152 142 137 132 132 140 135 142 137 122 117 117 121 112 111 110 111 112 110 116 101 88 72 65 59 66 66 38 32 99 134 135 108 72 64 70 74 77 72 74
151 154 151 140 137 140 145 150 152 149 150 143 135 136 134 129 145 143 132 133 130 122 115 113 110 100 63 43 34 58 87 73 35 97 127 134 117 97 78 72 81 82 80
Height
1516 1515 1515 1515 1515 1515 1516 1516 1517 1518 1519 1519 1520 1520 1521 1521 1522 1522 1523 1524 1524 1525 1525 1526 1526 1527 1527 1527 1528 1528 1529 1529 1530 1530 1530 1530 1530 1531 1531 1531 1531 1531 1531
1517 1516 1516 1515 1516 1516 1517 1517 1518 1519 1519 1520 1520 1521 1522 1522 1523 1523 1524 1525 1525 1526 1527 1527 1527 1528 1528 1528 1529 1529 1530 1530 1531 1531 1531 1531 1531 1531 1531 1532 1531 1531 1531
1517 1516 1516 1516 1516 1517 1518 1518 1519 1519 1520 1521 1521 1522 1522 1523 1524 1524 1525 1526 1526 1527 1527 1528 1528 1528 1529 1529 1530 1530 1531 1531 1532 1532 1532 1532 1532 1532 1532 1532 1532 1532 1531
1518 1517 1517 1517 1517 1518 1518 1519 1520 1520 1521 1521 1522 1523 1523 1524 1524 1525 1526 1526 1527 1528 1528 1528 1529 1529 1530 1530 1530 1531 1532 1532 1533 1533 1533 1533 1533 1533 1533 1533 1532 1532 1532
1519 1518 1518 1518 1518 1518 1519 1520 1520 1521 1522 1522 1523 1524 1524 1525 1525 1526 1526 1527 1528 1528 1529 1529 1529 1530 1530 1531 1531 1532 1533 1533 1534 1534 1534 1534 1534 1534 1533 1533 1533 1533 1532
1520 1519 1519 1519 1519 1519 1520 1520 1521 1522 1523 1523 1524 1524 1525 1525 1526 1527 1527 1528 1528 1529 1529 1530 1530 1530 1531 1532 1532 1533 1534 1534 1535 1535 1535 1535 1534 1534 1534 1534 1533 1533 1533
1521 1521 1520 1520 1520 1521 1521 1521 1522 1523 1523 1524 1525 1525 1526 1526 1527 1527 1528 1529 1529 1530 1530 1530 1531 1531 1532 1533 1533 1534 1534 1535 1536 1536 1535 1535 1535 1535 1534 1534 1534 1533 1533
1522 1522 1522 1522 1522 1522 1522 1522 1523 1524 1524 1525 1526 1526 1527 1527 1528 1528 1529 1529 1530 1530 1531 1531 1532 1532 1533 1533 1534 1535 1535 1536 1536 1536 1536 1536 1536 1535 1535 1534 1534 1534 1533
1523 1523 1523 1523 1523 1523 1523 1524 1524 1525 1526 1526 1527 1528 1528 1529 1529 1530 1530 1530 1531 1531 1532 1532 1533 1533 1534 1535 1536 1536 1537 1537 1537 1537 1537 1537 1536 1536 1535 1535 1534 1534 1534
1524 1524 1524 1525 1524 1524 1525 1525 1526 1526 1527 1528 1528 1529 1530 1530 1531 1531 1531 1532 1532 1532 1533 1534 1534 1535 1536 1537 1537 1538 1538 1539 1539 1538 1538 1538 1537 1537 1536 1535 1535 1534 1534
1525 1526 1526 1526 1526 1526 1527 1527 1527 1528 1529 1529 1530 1531 1531 1532 1532 1533 1533 1533 1534 1534 1535 1536 1536 1537 1538 1539 1539 1540 1540 1540 1540 1539 1539 1539 1538 1537 1537 1536 1536 1535 1534
1526 1527 1527 1527 1528 1528 1528 1528 1529 1529 1530 1530 1531 1532 1533 1534 1534 1535 1535 1535 1536 1536 1537 1538 1538 1539 1540 1541 1541 1541 1541 1541 1540 1540 1540 1540 1539 1539 1538 1537 1536 1536 1535
1526 1527 1528 1528 1529 1529 1530 1530 1531 1531 1532 1532 1533 1534 1534 1535 1536 1536 1537 1537 1538 1538 1539 1539 1540 1541 1541 1542 1542 1543 1543 1542 1542 1542 1542 1541 1540 1540 1539 1538 1538 1537 1536
1527 1528 1529 1529 1530 1530 1531 1531 1532 1532 1533 1534 1534 1535 1536 1536 1537 1538 1538 1539 1539 1540 1541 1541 1541 1542 1543 1543 1544 1544 1544 1544 1543 1543 1543 1542 1542 1541 1540 1540 1539 1538 1537
1527 1528 1529 1530 1531 1531 1531 1532 1533 1534 1534 1535 1535 1536 1537 1537 1538 1539 1540 1540 1541 1542 1542 1542 1543 1544 1544 1544 1545 1545 1545 1545 1545 1545 1544 1544 1543 1542 1541 1541 1540 1539 1538
1526 1528 1529 1530 1531 1531 1532 1533 1534 1534 1535 1536 1536 1537 1538 1538 1539 1540 1541 1541 1542 1543 1543 1543 1544 1545 1545 1546 1546 1547 1547 1546 1547 1546 1546 1545 1545 1544 1543 1542 1541 1540 1539
1526 1527 1529 1530 1531 1532 1532 1533 1534 1535 1535 1536 1537 1538 1539 1540 1540 1541 1542 1542 1543 1544 1544 1545 1546 1546 1546 1547 1548 1548 1548 1548 1548 1548 1547 1547 1546 1546 1545 1544 1543 1542 1541
1526 1527 1528 1530 1531 1532 1533 1534 1535 1535 1536 1537 1538 1538 1540 1541 1541 1542 1542 1543 1544 1545 1546 1546 1547 1547 1548 1548 1549 1550 1550 1550 1550 1550 1549 1549 1548 1548 1547 1546 1545 1544 1543
1525 1526 1528 1529 1531 1532 1533 1534 1535 1536 1537 1537 1538 1539 1540 1541 1542 1543 1543 1544 1545 1546 1547 1547 1548 1548 1549 1550 1550 1551 1551 1551 1551 1552 1551 1551 1550 1550 1549 1548 1547 1546 1544
1524 1526 1527 1528 1530 1531 1533 1534 1535 1536 1537 1538 1539 1540 1541 1542 1543 1543 1544 1545 1546 1547 1547 1548 1549 1550 1550 1551 1552 1552 1553 1553 1553 1553 1553 1552 1552 1552 1551 1550 1549 1547 1546
1523 1525 1526 1528 1529 1531 1532 1533 1535 1536 1538 1538 1539 1540 1541 1542 1543 1544 1545 1546 1547 1547 1548 1549 1550 1551 1551 1552 1553 1553 1554 1554 1554 1555 1554 1554 1554 1554 1553 1552 1550 1549 1548
1521 1524 1526 1527 1528 1530 1531 1533 1534 1536 1537 1538 1539 1540 1541 1543 1543 1544 1545 1546 1547 1548 1549 1550 1551 1551 1552 1553 1553 1554 1555 1557 1556 1556 1556 1556 1555 1555 1555 1554 1552 1551 1549
1520 1522 1524 1526 1527 1529 1530 1532 1534 1535 1537 1538 1539 1540 1541 1542 1544 1545 1545 1546 1547 1548 1549 1550 1551 1552 1552 1553 1554 1555 1555 1556 1557 1558 1558 1557 1557 1557 1556 1556 1554 1553 1551
1518 1520 1522 1524 1526 1528 1529 1531 1533 1534 1536 1537 1539 1540 1541 1542 1543 1545 1546 1546 1547 1549 1550 1551 1552 1552 1553 1553 1554 1555 1555 1555 1556 1558 1559 1559 1559 1558 1558 1557 1556 1555 1553
1516 1518 1520 1522 1524 1526 1528 1530 1532 1534 1535 1537 1538 1539 1541 1542 1543 1544 1546 1547 1548 1549 1550 1551 1551 1553 1553 1554 1554 1555 1555 1556 1556 1557 1558 1560 1560 1559 1559 1558 1558 1556 1555
1513 1516 1518 1520 1522 1524 1527 1529 1531 1532 1534 1536 1537 1538 1540 1541 1542 1544 1545 1546 1547 1549 1550 1551 1552 1552 1553 1554 1554 1555 1555 1556 1556 1557 1557 1559 1559 1560 1560 1560 1559 1558 1557